• Processing (Info)

  • MPEC 2022-R40 : 2022 QO36

    The following Minor Planet Electronic Circular may be linked-to from your own Web pages, but must not otherwise be redistributed electronically.

    A form allowing access to any MPEC is at the bottom of this page.


    Read MPEC 2022-R39 Read MPEC 2022-R41


    M.P.E.C. 2022-R40                             Issued 2022 September 3, 19:34 UT
    
         The Minor Planet Electronic Circulars contain information on unusual
             minor planets and routine data on comets.  They are published
        on behalf of Division F of the International Astronomical Union by the
              Minor Planet Center, Smithsonian Astrophysical Observatory,
                              Cambridge, MA 02138, U.S.A.
    
                 Prepared using the Tamkin Foundation Computer Network
    
                                  MPC@CFA.HARVARD.EDU
                URL https://www.minorplanetcenter.net/    ISSN 1523-6714
    
                                    2022 QO36                                
    
    
    Observations:
         K22Q36O* C2022 08 28.35224321 13 33.997-02 42 14.48         22.17wUER040F52
         K22Q36O  C2022 08 28.36519221 13 33.213-02 42 21.58         22.06wUER040F52
         K22Q36O  C2022 08 28.37806321 13 32.441-02 42 28.34         22.17wUER040F52
         K22Q36O  C2022 08 28.39100821 13 31.661-02 42 35.44         22.12GVER040F52
         K22Q36O  C2022 09 01.35152221 10 03.330-03 19 59.88         22.95wUER040F51
         K22Q36O  C2022 09 01.36507321 10 02.567-03 20 07.79         22.73wUER040F51
         K22Q36O  C2022 09 01.37861521 10 01.807-03 20 15.91         22.23wUER040F51
         K22Q36O  C2022 09 01.39215921 10 01.051-03 20 23.95         22.39wUER040F51
         K22Q36O ^C2022 09 02.26734921 09 18.557-03 29 07.88         22.24GVER040568
         K22Q36O ^C2022 09 02.26855721 09 18.492-03 29 08.63         22.19GVER040568
         K22Q36O ^C2022 09 02.26976621 09 18.427-03 29 09.35         22.13GVER040568
         K22Q36O ^C2022 09 03.35854921 08 25.896-03 40 14.33         22.19GVER040568
         K22Q36O ^C2022 09 03.36176921 08 25.728-03 40 16.32         22.20GVER040568
    
    Observer details:
    568 Mauna Kea.  Observers R. Wainscoat, L. Wells, E. Bertin, J. Fairlamb.
        Measurers R. Weryk, R. Wainscoat.  3.6-m Canada-France-Hawaii Telescope +
        CCD, 2.24-m University of Hawaii reflector + CCD.
    F51 Pan-STARRS 1, Haleakala.  Observers J. Bulger, T. Lowe, A. Schultz, I.
        Smith.  Measurers K. Chambers, S. Chastel, T. de Boer, J. Fairlamb, H.
        Gao, M. Huber, C.-C. Lin, E. Magnier, Y. Ramanjooloo, R. Wainscoat, R.
        Weryk.  1.8-m Ritchey-Chretien + CCD.
    F52 Pan-STARRS 2, Haleakala.  Observers J. Bulger, T. Lowe, A. Schultz, I.
        Smith, K. Chambers, T. Dukes.  Measurers K. Chambers, S. Chastel, T. de
        Boer, J. Fairlamb, H. Gao, M. Huber, C.-C. Lin, E. Magnier, Y.
        Ramanjooloo, R. Wainscoat, R. Weryk.  1.8-m Ritchey-Chretien + CCD.
    
    Orbital elements:
    2022 QO36                                                Earth MOID = 0.2681 AU
    Epoch 2022 Aug. 9.0 TT = JDT 2459800.5                  Veres                   
    M 328.76943              (2000.0)            P               Q                  
    n   0.27410667     Peri.  198.33827     +0.79425216     -0.60657605             
    a   2.3470535      Node   199.13280     +0.56998180     +0.76383487             
    e   0.4637420      Incl.    6.14010     +0.21043823     +0.22050350             
    P   3.60           H   21.80          G   0.15           U   7                  
    Residuals in seconds of arc
    220828 F52  0.1-  0.1+    220901 F51  0.0   0.0     220902 568  0.0   0.0
    220828 F52  0.1-  0.1-    220901 F51  0.0   0.1-    220903 568  0.0   0.0
    220828 F52  0.1+  0.1+    220901 F51  0.0   0.1-    220903 568  0.0   0.0
    220828 F52  0.2+  0.1-    220902 568  0.0   0.0
    220901 F51  0.0   0.2-    220902 568  0.0   0.0
    
    Ephemeris:
    2022 QO36                a,e,i = 2.35, 0.46, 6                   q = 1.2586
    Date    TT    R. A. (2000) Decl.     Delta      r    Elong.  Phase     V
    2022 08 04    21 35 08.8 -00 39 05   0.7188  1.7094   160.6    11.4    22.9
    ...
    2022 08 19    21 22 27.4 -01 31 16   0.6222  1.6236   166.4     8.4    22.4
    ...
    2022 08 27    21 14 48.8 -02 30 16   0.5874  1.5791   161.8    11.6    22.3
    ...
    2022 09 02    21 09 31.1 -03 26 20   0.5686  1.5466   156.2    15.2    22.4
    2022 09 03    21 08 42.8 -03 36 27   0.5661  1.5413   155.2    15.9    22.4
    2022 09 04    21 07 56.2 -03 46 45   0.5636  1.5359   154.2    16.6    22.4
    ...
    2022 09 10    21 03 59.2 -04 51 32   0.5523  1.5046   148.1    20.7    22.4
    ...
    2022 09 18    21 01 05.0 -06 21 47   0.5445  1.4644   140.0    26.2    22.5
    ...
    2022 10 03    21 05 05.2 -08 59 22   0.5471  1.3957   126.2    35.3    22.7
    
    M. P. C. Staff               (C) Copyright 2022 MPC           M.P.E.C. 2022-R40
    


    Read MPEC 2022-R39 Read MPEC 2022-R41


    MPEC number:

    Enter an MPEC number in one of the following forms:

    • 1997-B01 (the full form)
    • J97B01 (the packed version of the full form)
    • B01 (the abbreviated form)